Location: Oriwa
(40.7500°S, 175.3333°E)
Time: 16:55:20
(UTC+00:00)

Okean 3 - Visible Passes

Search period start: 30 September 2023 00:00
Search period end: 10 October 2023 00:00
Orbit: 566 x 592 km, 82.5° (Epoch: 29 September)

Date Brightness Start Highest point End Pass type
(mag) Time Alt. Az. Time Alt. Az. Time Alt. Az.
30 Sep 4.7 06:48:59 10° NE 06:52:08 21° E 06:55:20 10° SE visible
30 Sep 5.4 08:25:11 10° NW 08:28:56 30° WSW 08:32:46 10° SSW visible
01 Oct 4.4 06:53:10 10° NNE 06:56:48 28° E 07:00:28 10° SSE visible
01 Oct 5.9 08:30:26 10° NW 08:33:48 23° WSW 08:37:13 10° SSW visible
02 Oct 4.0 06:57:33 10° NNE 07:01:28 38° E 07:05:29 10° SSE visible
02 Oct 6.4 08:35:54 10° WNW 08:38:41 17° WSW 08:41:30 10° SSW visible
03 Oct 3.6 07:02:03 10° N 07:06:11 54° E 07:10:23 10° SSE visible
03 Oct 6.8 08:41:43 10° W 08:43:35 12° WSW 08:45:27 10° SW visible
03 Oct 7.1 17:07:40 10° SE 17:09:28 12° ESE 17:11:14 10° E visible
04 Oct 3.4 07:06:40 10° N 07:10:53 77° E 07:15:13 10° S visible
04 Oct 6.8 17:11:34 10° SSE 17:14:21 17° ESE 17:17:06 10° ENE visible
05 Oct 3.7 07:11:23 10° NNW 07:15:37 76° W 07:19:57 10° S visible
05 Oct 6.6 17:15:49 10° SSE 17:19:13 22° ESE 17:22:33 10° NE visible
06 Oct 4.4 07:16:13 10° NNW 07:20:23 54° W 07:24:38 10° S visible
07 Oct 5.1 07:21:10 10° NNW 07:25:09 39° WSW 07:29:13 10° S visible
08 Oct 5.8 07:26:14 10° NW 07:29:56 28° WSW 07:33:43 10° SSW visible
09 Oct 6.4 07:31:28 10° WNW 07:34:45 21° WSW 07:38:05 10° SSW visible
